Weather observations for the past three days for
Shelton, Shelton Sanderson Field
Imperial (Metric)
Date Time (pdt) Wind (mph) Vis. (mi.) Weather Sky Cond. Temperature (ºF) Relative Humidity Wind Chill (°F) Heat Index (°F) Pressure Precipitation (in)
Air Dwpt 6 hour altimeter (in) sea level (mb) 1 hr 3 hr 6 hr
Max. Min.
07 01:53 SW 13 10.00 Overcast BKN026 OVC036 48.9 45 86% 44 30.13 1020.6
07 00:53 SW 10 10.00 Overcast OVC020 51.1 46 83% 30.13 1020.5
06 23:53 W 10 10.00 Overcast OVC019 51.1 46 83% 30.12 1020.3
06 22:53 W 13 10.00 Overcast OVC021 52 46 57.9 52 80% 30.12 1020.3
06 21:53 SW 15 10.00 Overcast OVC025 53.1 46 77% 30.13 1020.4
06 20:53 W 12 10.00 Overcast OVC033 53.1 46.9 80% 30.12 1020.1
06 19:53 SW 16 10.00 Overcast OVC020 54 48 80% 30.11 1019.7
06 18:53 SW 16 G 25 10.00 Overcast OVC019 55 48 77% 30.11 1019.7
06 17:53 SW 13 10.00 Overcast OVC019 55.9 48 75% 30.11 1019.8
06 16:53 SW 16 G 24 10.00 Overcast OVC023 57.9 48 57.9 53.1 70% 30.11 1019.6
06 15:53 W 14 10.00 Overcast OVC023 57.9 46.9 67% 30.12 1019.9
06 14:53 SW 18 10.00 Overcast OVC022 57 48 72% 30.12 1020.1
06 13:53 SW 15 G 23 10.00 Overcast OVC018 55.9 48 75% 30.12 1020.1
06 12:53 SW 16 G 28 10.00 Overcast SCT017 OVC024 55 48 77% 30.12 1020.0
06 11:53 SW 15 10.00 Overcast OVC017 53.1 46.9 80% 30.11 1019.9
06 10:53 SW 16 10.00 Overcast OVC017 53.1 46 54 50 77% 30.11 1019.9
06 09:53 SW 17 G 25 10.00 Overcast OVC014 52 46 80% 30.1 1019.5
06 08:53 SW 13 10.00 Overcast OVC012 51.1 46.9 86% 30.1 1019.5
06 07:53 SW 10 G 21 7.00 Overcast OVC011 50 48 93% 46 30.09 1019.2
06 06:53 SW 8 10.00 Overcast OVC012 51.1 48 89% 30.08 1018.8
06 05:53 SW 9 9.00 Overcast OVC012 51.1 48.9 92% 30.07 1018.3
06 04:53 SW 10 10.00 Overcast OVC012 51.1 48 53.1 51.1 89% 30.06 1017.9
06 03:53 SW 12 10.00 Overcast OVC010 51.1 48 89% 30.05 1017.5
06 02:53 SW 12 10.00 Overcast OVC009 51.1 48 89% 30.04 1017.4
06 01:53 SW 13 10.00 Overcast OVC010 52 48 86% 30.03 1017.1
06 00:53 SW 14 G 20 10.00 Overcast OVC010 52 48 86% 30.02 1016.6
05 23:53 SW 12 10.00 Overcast OVC011 53.1 48.9 86% 30.01 1016.2
05 22:53 SW 13 G 24 10.00 Overcast OVC013 53.1 48.9 68 53.1 86% 30 1016.1
05 21:53 W 10 10.00 Fair CLR 53.1 48 83% 30 1015.8
05 20:53 SW 13 10.00 Fair CLR 55 48.9 80% 29.98 1015.2
05 19:53 SW 13 G 21 10.00 Fair CLR 59 50 72% 29.96 1014.5
05 18:53 SW 14 10.00 Fair CLR 63 51.1 65% 29.95 1014.2
05 17:53 SW 12 10.00 Fair CLR 66 51.1 59% 29.95 1014.0
05 16:53 SW 8 G 16 10.00 Fair CLR 66.9 52 68 55.9 59% 29.95 1014.2
05 15:53 SW 14 G 20 10.00 A Few Clouds FEW028 66 52 61% 29.97 1014.9
05 14:53 SW 8 G 17 10.00 Mostly Cloudy BKN023 63 51.1 65% 29.99 1015.5
05 13:53 S 10 G 18 10.00 Overcast OVC019 60.1 51.1 72% 29.99 1015.8
05 12:53 SW 13 10.00 Overcast OVC019 59 50 72% 30 1015.9
05 11:53 SW 13 10.00 Overcast OVC019 57.9 50 75% 30 1015.8
05 10:53 SW 12 10.00 Overcast OVC016 55.9 48.9 55.9 53.1 77% 30 1015.8
05 09:53 SW 8 10.00 Overcast OVC017 55.9 48.9 77% 29.99 1015.5
05 08:53 SW 13 10.00 Overcast OVC016 55 48.9 80% 29.97 1015.1
05 07:53 SW 12 10.00 Overcast OVC016 54 48.9 83% 29.96 1014.7
05 06:53 SW 8 10.00 Overcast OVC016 53.1 48 83% 29.95 1014.3
05 05:53 SW 10 10.00 Overcast OVC015 53.1 48.9 86% 29.93 1013.7
05 04:53 W 14 10.00 Overcast OVC012 53.1 48.9 54 53.1 86% 29.92 1013.3
05 03:53 SW 10 10.00 Overcast OVC009 53.1 50 89% 29.92 1013.1
05 02:53 SW 10 7.00 Overcast OVC008 53.1 51.1 93% 29.91 1012.7
05 01:53 SW 18 G 25 10.00 Overcast OVC010 53.1 50 89% 29.9 1012.5
05 00:53 SW 16 G 24 10.00 Overcast OVC010 54 50 87% 29.89 1012.2
04 23:53 SW 20 G 26 10.00 Overcast OVC011 54 50 87% 29.87 1011.7
04 22:53 SW 14 G 28 10.00 Overcast OVC011 54 50 68 54 87% 29.86 1011.2
04 21:53 SW 16 G 26 10.00 Overcast OVC011 55 50 83% 29.86 1011.2
04 20:53 W 18 G 29 10.00 Partly Cloudy SCT013 55 50 83% 29.85 1010.8
04 19:53 W 17 G 29 10.00 Fair CLR 55.9 50 81% 29.84 1010.4
04 18:53 SW 21 G 35 10.00 Fair and Breezy CLR 59 51.1 75% 29.83 1010.1
04 17:53 W 23 G 32 10.00 Fair and Breezy CLR 64 51.1 63% 29.83 1010.0
04 16:53 W 20 G 31 10.00 Fair CLR 68 52 72 61 57% 29.82 1009.9
04 15:53 W 17 G 24 10.00 Fair CLR 70 52 53% 29.83 1010.1
04 14:53 SW 18 G 25 10.00 Fair CLR 72 52 50% 29.83 1010.1
04 13:53 SW 16 G 25 10.00 Fair CLR 69.1 52 55% 29.84 1010.7
04 12:53 SW 14 G 24 10.00 Fair CLR 66.9 52 59% 29.85 1010.8
04 11:53 SW 15 10.00 Fair CLR 64 52 65% 29.86 1011.4
04 10:53 SW 18 10.00 Fair CLR 61 52 61 44.1 72% 29.87 1011.4
04 09:53 SW 20 G 28 10.00 Partly Cloudy SCT011 57.9 52 81% 29.86 1011.1
04 08:53 W 13 10.00 Overcast OVC008 55 51.1 87% 29.85 1010.9
04 07:53 W 16 G 26 10.00 Overcast OVC006 53.1 51.1 93% 29.84 1010.5
04 06:53 W 15 G 22 9.00 Mostly Cloudy BKN005 51.1 50 96% 29.83 1010.1
04 05:53 W 12 10.00 Fair CLR 53.1 48.9 86% 29.81 1009.4
04 04:53 NW 3 10.00 Fair CLR 46.9 44.1 57 45 90% 29.8 1008.9
04 03:53 Calm 10.00 Fair CLR 46.9 44.1 90% 29.8 1008.9
04 02:53 Calm 10.00 Fair CLR 48.9 45 86% 29.79 1008.6
Date Time (pdt) Wind (mph) Vis. (mi.) Weather Sky Cond. Air Dwpt Max. Min. Relative Humidity Wind Chill (°F) Heat Index (°F) altimeter (in) sea level (mb) 1 hr 3 hr 6 hr
6 hour
Temperature (ºF) Pressure Precipitation (in)